Home > Weather > Versoix > Past weeks

Flag for Switzerland Weather for the Past 2 Weeks in Versoix, Geneva, Switzerland

Now
55 °F

Refreshingly cool.


Feels Like: 55 °F
Forecast: 44 / 72 °F
Wind: 2 mph from Northwest

Location: Geneve-Cointrin

Current Time: May 5, 2016 at 10:23:42 PM

Latest Report: May 5, 2016 at 9:00 PM


Visibility: N/A

Pressure: 30.02 "Hg

Humidity: 52%

Dew Point: 38 °F

Location of VersoixLocation

Historic Weather in Versoix — Graph

°F

Versoix Temperature Yesterday

Maximum temperature yesterday: 61 °F (at 6:00 PM)
Minimum temperature yesterday: 41 °F (at 7:00 AM)
Average temperature yesterday: 52 °F

High & Low Weather Summary for the Past Weeks

 TemperatureHumidityPressure
High67 °F (Apr 21, 4:00 PM)94% (Apr 23, 12:00 AM)30.33 "Hg (Apr 23, 12:00 AM)
Low33 °F (Apr 28, 2:00 AM)27% (Apr 29, 8:00 PM)29.77 "Hg (Apr 26, 7:00 PM)
Average50 °F63%30.04 "Hg
* Reported Apr 20 8:00 PM — May 5 8:00 PM, Versoix, Weather by CustomWeather, © 2016

Note: Actual official high and low records may vary slightly from our data, if they occured in-between our weather recording intervals... More about our weather records

Advertising

Versoix Weather History for the Previous 24 Hours

Scroll right to see more
 ConditionsComfort  
Time TempWeatherWind HumidityBarometerVisibility
8:00 PM
Thu, May 5
62 °FSunny.2 mph38%29.99 "Hg37 mi
7:00 PM65 °FMild.6 mph31%29.98 "HgN/A
6:00 PM65 °FMild.7 mph28%29.99 "HgN/A
5:00 PM64 °FPassing clouds.9 mph32%30.01 "Hg37 mi
4:00 PM64 °FMild.9 mph37%30.02 "HgN/A
3:00 PM61 °FRefreshingly cool.7 mph37%30.05 "HgN/A
2:00 PM61 °FSunny.8 mph41%30.06 "Hg43 mi
1:00 PM59 °FRefreshingly cool.9 mph45%30.07 "HgN/A
12:00 PM56 °FRefreshingly cool.9 mph48%30.09 "HgN/A
11:00 AM53 °FSunny.13 mph51%30.10 "Hg43 mi
10:00 AM51 °FCool.15 mph53%30.12 "HgN/A
9:00 AM49 °FCool.10 mph56%30.14 "HgN/A
8:00 AM46 °FSunny.1 mph67%30.16 "Hg43 mi
7:00 AM39 °FChilly.2 mph83%30.19 "HgN/A
6:00 AM38 °FChilly.2 mph85%30.20 "HgN/A
5:00 AM38 °FClear.2 mph83%30.21 "Hg31 mi
4:00 AM40 °FChilly.1 mph80%30.20 "HgN/A
3:00 AM40 °FQuite cool.1 mph78%30.21 "HgN/A
2:00 AM42 °FClear.2 mph76%30.21 "Hg37 mi
1:00 AM44 °FQuite cool.1 mph66%30.21 "HgN/A
12:00 AM50 °FCool.2 mph51%30.19 "HgN/A
11:00 PM
Wed, May 4
49 °FClear.5 mph53%30.20 "Hg37 mi
10:00 PM53 °FCool.8 mph41%30.19 "HgN/A
Weather by CustomWeather, © 2016

See weather overviewHow to use our weather pages